Showing default

OSCAR 22 (UOSAT 5), 21575

Orbit data source: Space-Track

OSCAR 22 (UOSAT 5), 21575 is a payload satellite owned by SSTL (UK) in SSO that was launched on Wed, 17 Jul 1991 UTC via an ARIANE 40 launch vehicle from the French Guiana (FRGUI). Payload-class satellites include a variety of spacecraft equipped with specific instruments for various scientific and technological missions. These include communications satellites like Starlink; space stations such as the ISS; scientific satellites like the Hubble; Earth observation satellites from companies like Planet Labs, Umbra, and HawkEye 360; GPS; miniature CubeSats for education and research; and military/defense satellites.

Loading next visibility...
Identifier
21575, 1991-050B
Orbit
SSO
Country
Flag of UKUK
Related business
Manufacturer
SSTL
Mission
Non-operational Commercial Communications
Bus & Motor
UOSAT, Unknown motor
Mass
48 kg wet, 48 kg dry
Launch date (UTC)
1991-07-17 (35 years ago)
Launch vehicle
ARIANE 40
Launch site
French Guiana (FRGUI)
Object type
Payload
Rocket body
Debris
Shape & HBR
Hex Poly, 0.3 m
Radar Cross Section
0.299 m², Medium (>0.1 m² and < 1m²)

Expand to show TLE details & history
Last TLE update: 2 days ago

TLE from 2 days ago
0 OSCAR 22 (UOSAT 5)
1 21575U 91050B   26171.43728596  .00000119  00000-0  48848-4 0  9993
2 21575  98.3501 239.8407 0007619 156.1993 203.9551 14.42373606835016
Epoch: 2026-06-20T10:29Z
TLE epoch observation values (Epoch: 2026-06-20T10:29:41.506Z)
Latitude
-0.00002°
Longitude
173.76584°
Altitude
758.589 km
Speed
7.473 km/s
True Right ascension
15h 59m 21s
True Declination
0° 00' 00"
Sunlit
Object was in full shadow at epoch
Visualization orbit readout
Latitude
Unknown
Longitude
Unknown
Altitude
Unknown
Speed
Unknown
Apparent Right ascension
Unknown
Apparent Declination
Unknown
Sunlit
N/A
Visualization observer readout
Local Sidereal Time
00:29:14
Azimuth
Unknown
Elevation
Unknown
Doppler factor
Unknown
Orbital elements
Apogee altitude
753.208 km
Perigee altitude
742.349 km
Semi-major axis
7,125.916 km
Eccentricity
0.00076
Inclination
98.3501°
RAAN
239.8407°
Arg. of periapsis
156.1993°
True anomaly
203.91968°
Mean anomaly
203.9551°
Eccentric anomaly
203.93739°
Mean motion
3.60813 °/min
Orbital period
99.77 mins
BSTAR
0.000048848
Loading maneuver chart data...
Computing Atmospheric mass density...
Loading historical data...
Loading historical data...
Loading historical data...
Loading historical data...
Loading historical data...
Loading historical data...
Loading historical data...

Documentation

Showing up to 5 results
|